Location: 22
(39.7117°N, 89.5929°W)
Time: 09:11:14
(UTC-05:00)

Altair - Visible Passes

Search period start: 19 July 2025 00:00
Search period end: 29 July 2025 00:00
Orbit: 1502 x 1682 km, 47.2° (Epoch: 19 July)

Date Brightness Start Highest point End Pass type
(mag) Time Alt. Az. Time Alt. Az. Time Alt. Az.
19 Jul 8.8 00:20:55 10° W 00:26:29 18° SW 00:26:31 18° SW visible
19 Jul 7.5 21:48:53 10° WNW 21:57:58 69° SW 22:04:27 22° SE visible
19 Jul 8.7 23:55:17 10° W 00:01:24 20° SW 00:02:27 20° SW visible
20 Jul 7.5 21:23:39 10° WNW 21:32:47 73° SW 21:40:26 16° SE visible
20 Jul 8.7 23:29:44 10° W 23:36:19 22° SW 23:38:26 21° SW visible
21 Jul 7.5 20:58:25 10° WNW 21:07:35 78° SW 21:16:27 11° SE visible
21 Jul 8.6 23:04:15 10° WNW 23:11:13 25° SW 23:14:27 21° SSW visible
22 Jul 8.6 22:38:49 10° WNW 22:46:07 28° SW 22:50:32 19° SSW visible
23 Jul 8.5 22:13:25 10° WNW 22:21:01 30° SW 22:26:40 17° S visible
24 Jul 8.5 21:48:03 10° WNW 21:55:54 33° SW 22:02:51 13° S visible
25 Jul 8.4 21:22:41 10° WNW 21:30:48 37° SW 21:38:57 10° SSE visible
26 Jul 8.3 20:57:22 10° WNW 21:05:40 40° SW 21:14:01 10° SSE visible
27 Jul 8.3 20:32:03 10° WNW 20:40:32 44° SW 20:49:03 10° SSE visible
